Hourly Weather Roundup
Issued by NWS Central Illinois

Home | Current Version | Previous Version | Text Only | Print | Product List | Glossary On
Versions: 1 2 3 4 5 6 7 8 9 10 11 12 13 14 15 16 17 18 19 20 21 22 23 24 25 26 27 28 29 30 31 32 33 34 35 36 37 38 39 40 41 42 43 44 45 46 47 48 49 50
000
NZUS43 KILX 221110
HWRILX

AREA WEATHER ROUNDUP
NATIONAL WEATHER SERVICE, LINCOLN IL
600 AM CDT FRI MAY 22 2015


CITY           SKY/WX    TMP DP  RH WIND       PRES   REMARKS
BLOOMINGTON    CLEAR     51  47  86 W9        30.15R
CHAMPAIGN      CLEAR     48  44  86 W8        30.14R
DANVILLE       CLEAR     48  44  86 SW7       30.11R
DECATUR        CLEAR     52  45  77 W9        30.15S
EFFINGHAM      CLEAR     48  41  77 SW3       30.20S
FLORA          CLEAR     47  43  84 SW7       30.22S
GALESBURG      CLEAR     47  43  87 N3        30.15R
JACKSONVILLE   CLEAR     53  46  76 W8        30.16S
LACON          CLEAR     50  44  80 CALM      30.13R
LAWRENCEVILLE  CLEAR     47  43  86 SW8       30.22R
LITCHFIELD     CLEAR     50  43  77 SW8       30.18S
$$


CITY           SKY/WX    TMP DP  RH WIND       PRES   REMARKS
LINCOLN        CLEAR     54  46  73 W6        30.14R
MACOMB         CLEAR     50  46  85 W7        30.17S
MATTOON        CLEAR     51  43  74 SW8       30.16R
MT CARMEL AP   CLEAR     52  43  71 SW10      30.22R
OLNEY-NOBLE AP CLEAR     46  43  87 S5        30.22R
PARIS          CLEAR     49  44  80 SW8       30.16R
PEORIA         CLEAR     51  44  77 VRB3      30.15R
PONTIAC        CLEAR     50  47  88 W6        30.14R
RANTOUL        CLEAR     53  46  77 W7        30.14R
ROBINSON       CLEAR     49  43  79 SW8       30.20R
SPRINGFIELD    CLEAR     51  44  77 SW6       30.16R
TAYLORVILLE    CLEAR     50  45  81 W8        30.16S
$$

...REGIONAL REPORTS...


CITY           SKY/WX    TMP DP  RH WIND       PRES   REMARKS
CHICAGO O`HARE CLEAR     47  39  74 N7        30.12R
KANKAKEE       CLEAR     48  45  87 W3        30.12R
MOLINE         CLEAR     46  40  79 CALM      30.14R
MOUNT VERNON   CLEAR     45  39  81 SW5       30.24S
PITTSFIELD     CLEAR     55  45  67 W8        30.18S
QUINCY         CLEAR     51  43  74 W6        30.17S
ROCKFORD       CLEAR     47  35  63 CALM      30.16R
$$


CITY           SKY/WX    TMP DP  RH WIND       PRES   REMARKS
BURLINGTON     CLEAR     51  45  79 NW9       30.15R
CEDAR RAPIDS   CLEAR     43  38  82 NW7       30.14R
DES MOINES     PTCLDY    51  41  68 NW6       30.18R
KIRKSVILLE     CLEAR     51  43  74 W8        30.20R
OTTUMWA        CLEAR     48  42  80 NW8       30.16R
ST LOUIS       PTCLDY    53  43  68 W7        30.21S
$$


CITY           SKY/WX    TMP DP  RH WIND       PRES   REMARKS
TERRE HAUTE    CLEAR     50  42  74 SW7       30.17R
EVANSVILLE     CLEAR     45  42  89 SW5       30.25R
INDIANAPOLIS   PTCLDY    48  41  76 SW10      30.14R
LAFAYETTE      CLEAR     47  43  86 SW5       30.13R
MADISON        CLEAR     42  35  76 N6        30.16R
MILWAUKEE      CLEAR     44  32  62 NE7       30.17R
$$





USA.gov is the U.S. government's official web portal to all federal, state and local government web resources and services.